Minot AFB, ND

4:14 PM CST on November 17, 2019 (GMT -0600)
Minot Air Force Base

Weather History for KMIB - October, 2019

Change the Weather History Date:

Monday, October 21, 2019

  Actual Average Record
Temperature  
Mean Temperature 36 °F -  
Max Temperature 45 °F 49 °F 71 °F (2014)
Min Temperature 29 °F 28 °F 12 °F (1997)
Degree Days  
Heating Degree Days 28    
Moisture  
Dew Point 29 °F    
Average Humidity 74    
Maximum Humidity 89    
Minimum Humidity 54    
Precipitation  
Precipitation 0.00 in - - ()
Sea Level Pressure  
Sea Level Pressure 29.96 in    
Wind  
Wind Speed 11 mph (NNW)    
Max Wind Speed 18 mph    
Max Gust Speed -    
Visibility 9 miles    
Events      
Averages and records for this station are not official NWS values.
T = Trace of Precipitation, MM = Missing Value Source: NWS Daily Summary

Daily Weather History Graph

Daily Weather History Graph

Search for Another Location

Airport or City:

Astronomy

Oct. 21, 2019 Rise Set
Actual Time 8:14 AM CDT 6:45 PM CDT
Civil Twilight 7:42 AM CDT 7:17 PM CDT
Nautical Twilight 7:05 AM CDT 7:53 PM CDT
Astronomical Twilight 6:29 AM CDT 8:29 PM CDT
Moon No Moon Rise 3:50 PM CDT (10/21)
Length of Visible Light 11h 34m
Length of Day
10h 31m
Waning Gibbous, 48% of the Moon is Illuminated
Oct 21
Waning Gibbous
Oct 27
New
Nov 4
First Quarter
Nov 12
Full
Nov 19
Last Quarter

Hourly Weather History & Observations

Time (CDT) Temp. Windchill Dew Point Humidity Pressure Visibility Wind Dir Wind Speed Gust Speed Precip Events Conditions
12:56 AM 41.5 °F 35.0 °F 30.7 °F 65% 29.91 in 7.0 mi North 11.5 mph - N/A   Overcast
1:56 AM 40.3 °F 33.4 °F 31.3 °F 70% 29.91 in 4.0 mi NNE 11.5 mph - N/A   Haze
2:56 AM 38.3 °F 32.5 °F 31.1 °F 75% 29.90 in 4.0 mi North 8.1 mph - N/A   Haze
3:56 AM 36.1 °F 30.6 °F 30.6 °F 80% 29.91 in 5.0 mi North 6.9 mph - N/A   Haze
4:56 AM 33.6 °F 26.8 °F 29.8 °F 86% 29.93 in 10.0 mi NNW 8.1 mph - N/A   Clear
5:56 AM 32.9 °F 25.3 °F 29.1 °F 86% 29.95 in 8.0 mi NNW 9.2 mph - N/A   Clear
6:56 AM 31.6 °F 23.1 °F 28.2 °F 87% 29.96 in 8.0 mi NNW 10.4 mph - N/A   Clear
7:56 AM 30.2 °F 22.6 °F 27.3 °F 89% 29.96 in 10.0 mi NNW 8.1 mph - N/A   Clear
8:56 AM 30.0 °F 21.7 °F 26.6 °F 87% 29.97 in 10.0 mi NNW 9.2 mph - N/A   Clear
9:56 AM 32.5 °F 23.2 °F 27.7 °F 82% 29.97 in 10.0 mi NNW 12.7 mph - N/A   Haze
10:56 AM 35.1 °F 25.5 °F 28.9 °F 78% 29.99 in 10.0 mi North 15.0 mph - N/A   Haze
11:56 AM 38.8 °F 30.8 °F 32.0 °F 76% 29.98 in 10.0 mi North 13.8 mph - N/A   Haze
12:56 PM 42.8 °F 35.4 °F 31.8 °F 65% 29.96 in 8.0 mi North 15.0 mph - N/A   Haze
1:56 PM 44.6 °F 36.9 °F 32.4 °F 62% 29.96 in 8.0 mi NNE 18.4 mph - N/A   Haze
2:56 PM 44.1 °F 36.5 °F 30.7 °F 59% 29.96 in 9.0 mi North 17.3 mph - N/A   Overcast
3:56 PM 43.5 °F 37.1 °F 29.3 °F 57% 29.96 in 9.0 mi North 12.7 mph - N/A   Haze
4:56 PM 43.7 °F 37.7 °F 28.2 °F 54% 29.97 in 10.0 mi North 11.5 mph - N/A   Haze
5:56 PM 43.5 °F 37.1 °F 28.4 °F 55% 29.99 in 10.0 mi North 12.7 mph - N/A   Haze
6:56 PM 40.5 °F 35.1 °F 28.9 °F 64% 29.99 in 10.0 mi North 8.1 mph - N/A   Haze
7:56 PM 34.9 °F 27.7 °F 28.0 °F 76% 30.00 in 10.0 mi NNW 9.2 mph - N/A   Clear
8:56 PM 34.9 °F 27.1 °F 27.7 °F 75% 30.01 in 10.0 mi NNW 10.4 mph - N/A   Clear
9:56 PM 32.0 °F 24.8 °F 26.6 °F 80% 30.01 in 10.0 mi NW 8.1 mph - N/A   Clear
10:56 PM 29.1 °F 20.0 °F 25.7 °F 87% 30.01 in 10.0 mi NW 10.4 mph - N/A   Clear
11:56 PM 29.7 °F 22.0 °F 26.1 °F 86% 30.00 in 10.0 mi NW 8.1 mph - N/A   Clear